Погода в Астрахани

Погода в Астрахани : погода сейчас, прогноз погоды и архив. Всё, что Вы хотите узнать о погоде в Астрахани!

Хотите узнать прогноз погоды в Астрахани? Тогда Вам сюда: Погода в Астрахани

Поиск расширенной информации на нашем сайте:

Другие новости

Новости СМИ2

Главная страница сайта

Новости сайта

03.07.2017

Напоминаем, что на нашем специализированном сайте Метеоцентр.Азия вы можете получить высокодетализированные автоматические прогнозы погоды по пунктам России, СНГ и мира в авиационном формате (включающие направление и скорость ветра, видимость, явления погоды, количество и форму облачности, нижнюю и верхнюю границу облачности).

Рекомендуем: http://angiosurgery.org/ флебология лечение вен.

Погода в Астрахани - сегодня

Время (UTC), дата Ветер
(°,м/с) 
Видим.   Явления Облачность Т
(°С)
Тd
(°С)
f(%) Тe
(°С)
Pmin
(гПа)
dP
(гПа)
Po
(мм)
O2
(г/м3)
Тmin Tmax R s Состояние
почвы
00 19.09.17 080 (В) 4000 м  дымка  ясно 
+18.8 +16.2 85 +30  1016.3  -0.5  764  285           
03 19.09.17 070 (В) 4000 м  дымка  ясно 
+19.3 +16.8 85 +32  1016.6  0.3  764  284  +18.6        сухая 
06 19.09.17 100 (В) 10 км    ясно 
+28.9 +12.4 36 +33  1017.1  0.4  765  276           
09 19.09.17 100 (В) 4{11}  10 км  пыльный позёмок  ясно 
+32.8 +8.3 22 +33  1016.3  -0.8  764  274           
12 19.09.17 100 (В) 4{11}  10 км  пыльный позёмок  ясно 
+32.3 +7.4 21 +32  1015.4  -0.9  763  274           
15 19.09.17 090 (В) 10 км    3/0 средняя 
[Ac trans]
+25.9 +13.8 47 +32  1015.8  0.5  764  278    +33.1       
18 19.09.17 080 (В) 10 км    ясно 
+20.4 +17 81 +32  1016.1  0.3  764  283           
21 19.09.17 тихо ()   10 км    ясно 
+19.1 +16.5 85 +30  1015.5  -0.6  764  284           
00 20.09.17 тихо ()   10 км    ясно 
+18.1 +15.2 83 +27  1015.3  -0.2  763  285           
03 20.09.17 070 (В) 10 км    3/0 средняя 
[Ac trans]
+18.1 +14.4 79 +27  1015.3  763  286  +17.5        сухая 
06 20.09.17 110 (В) 10 км    1/0 средняя 
[Ac trans]
+27.8 +13.2 41 +33  1016  0.6  764  277           
09 20.09.17 120 (ЮВ) 5{11}  10 км  пыльный позёмок  1/0 средняя 
[Ac trans]
+31.8 +6.9 21 +32  1015.5  -0.5  763  274           
12 20.09.17 110 (В) 4{10}  10 км    3/0 средняя 
[Ac trans]
+30.7 +10.7 29 +32  1015.1  -0.4  763  275           
15 20.09.17 080 (В) 10 км    3/0 средняя 
[Ac trans]
+25.2 +17.3 62 +38  1015.7  0.6  764  278    +31.8       
18 20.09.17 080 (В) 10 км    ясно 
+20.7 +17.4 81 +33  1016.1  0.5  764  282           
21 20.09.17 тихо ()   10 км    ясно 
+18.7 +15.7 83 +28  1016.1  764  285           
00 21.09.17 060 (СВ) 4000 м  дымка  ясно 
+18.2 +15.6 85 +29  1015.8  -0.3  764  285           
03 21.09.17 тихо ()   4000 м  дымка  3/0 средняя 
[Ac trans]
+16.8 +15.3 91 +25  1016.3  0.5  764  287  +16.7         
06 21.09.17 060 (СВ) 10 км    ясно 
+26.2 +17.7 60 +39  1016.9  0.5  764  277           
09 21.09.17 040 (СВ) 10 км    ясно 
+32 +12.6 31 +36  1016.3  -0.7  764  273           
12 21.09.17 070 (В) 10 км    ясно 
+33 +8.2 22 +33  1015.6  -0.6  764  273           
15 21.09.17 тихо ()   10 км    ясно 
+26.3 +10.6 37 +28  1015.9  0.3  764  279    +33.4       
18 21.09.17 050 (СВ) 10 км    ясно 
+20.7 +18.2 86 +35  1016.7  0.8  764  282           
21 21.09.17 060 (СВ) 10 км    ясно 
+18.9 +15.5 81 +29  1016.4  -0.2  764  285           
00 22.09.17 060 (СВ) 10 км    ясно 
+18.2 +15.4 84 +29  1015.8  -0.6  764  285           
Время (UTC), дата Ветер
(°,м/с) 
Видим.   Явления Облачность Т
(°С)
Тd
(°С)
f(%) Тe
(°С)
Pmin
(гПа)
dP
(гПа)
Po
(мм)
O2
(г/м3)
Тmin Tmax R s Состояние
почвы

Для получения пояснительной информации подведите курсор к названию столбца.

ПОГОДА в Астрахани - архив

Всё, что Вы хотите узнать о погоде в Астрахани - удобно и подробно!

Выберите нужную дату (начиная с 1 января 2015* года) и нажмите кнопку "Найти".
Будут отображены архивные сводки погоды по пункту Астрахань, начиная с указанной даты.


Отображать данные в формате CSV (для использования в таблицах Excel)


Внимание! Наш архив погоды предназначен исключительно для личного некоммерческого использования в познавательных целях. Если Вам необходимы официальные справки о состоянии погоды (для производственных, юридических, коммерческих и т.п. целей), обращайтесь в органы Росгидромета.

*Примечание: данная дата относится к архиву по метеостанциям СССР (Россия, СНГ, Балтия).
Архив по метеостанциям Зарубежной Европы и Азии (кроме Китая) хранится 10 дней, по другим регионам земного шара (Китай, Африка, Америка, Австралия, Океания) - 1 день.

Астрахань - район местоположения метеостанции


Название, широта, долгота, высота метеостанции:
Астрахань (обсерватория) 46.3°ш. 47.9°д. -23 м над ур. моря [Российская Федерация]

Дополнительная информация

В oтличие oт бoльшинства пoгoдных сайтoв мы публикуем пoдрoбную метеoинфoрмацию в детальнoм прoфессиoнальнoм фoрмате.

Характеристики температуры и влажнoсти вoздуха измеряются на высoте 2 м в тени вдали oт зданий и деревьев.
Скoрoсть ветра измеряется на высoте 10 м (на урoвне рoста челoвека скoрoсть ветра ниже в 1.5-2 раза). Если метеoстанция нахoдится в гoрoде или в лесу, тo скoрoсть ветра занижена на 2-4 м/с пo сравнению с oткрытым местoм. Скoрoсть ветра над акватoриями крупных рек и oзёр, а также на вершинах хoлмoв на 2-5 м/с выше, чем в oбычных услoвиях.
Атмoсфернoе давление в разных тoчках местнoсти мoжет значительнo oтличаться oт давления на метеoстанции, в зависимoсти oт услoвий рельефа (при пoдъёме на 10 м давление пoнижается примернo на 1 мм рт.ст.).